Погода в Туринске

Погода в Туринске : погода сейчас, прогноз погоды и архив. Всё, что Вы хотите узнать о погоде в Туринске!

Хотите узнать прогноз погоды в Туринске? Тогда Вам сюда: Погода в Туринске

Поиск расширенной информации на нашем сайте:

Полезная информация: офисные блоки на выгодных условиях аренда офиса в бизнес парке Московский шелк У метро Спортивная

Другие новости

Новости СМИ2

Главная страница сайта

Новости сайта

02.10.2013

Напоминаем, что на нашем новом сайте вы можете получить высокодетализированные прогнозы погоды по пунктам России, СНГ и мира (включающие важные для авиации метеовеличины, такие как направление и скорость ветра, видимость, явления погоды, количество и форма облачности, нижняя и верхняя граница облачности), а также ознакомиться с разнообразными материалами по авиационной метеорологии и подборкой полезных ссылок на эту тему.

Сайт Метеоцентр.Азия посвящён разработке технологий оптимизации авиаметеорологического обслуживания, включая проектирование и перспективное создание нескольких автоматизированных авиаметеорологических систем:
- система выпуска высокодетальных прогностических карт явлений погоды для нижнего воздушного пространства по России и ближнему зарубежью;
- система верификации прогнозов TAF (выпускаемых синоптиками официальных АМСГ РФ и ближнего зарубежья) и AUTOTAF (выпускаемых сайтом Метеоцентр.Азия) - выявление ошибок, онлайн-сопоставление с фактической погодой METAR, автоматическое внесение коррективов в прогнозы при резком отклонении фактической погоды от прогноза, подсчёт оправдываемости прогнозов по элементам и в целом;
- система обработки, анализа и отображения авиаметеорологической информации для применения провайдерами метеорологической информации.

Рекомендуем: газовые плиты aeg

Погода в Туринске - сегодня

Время (UTC), дата Ветер
(°,м/с) 
Видим.   Явления Облачность Т
(°С)
Тd
(°С)
f(%) Тe
(°С)
Pmin
(гПа)
dP
(гПа)
Po
(мм)
O2
(г/м3)
Тmin Tmax R s Состояние
почвы
06 20.03.17 180 (Ю) 20000 м    4/0 верхняя 
[Ci fib]
-2.4 -14.2 40 -2  1032.4  0.3  764  312           
09 20.03.17 200 (Ю) 20000 м    3/0 верхняя 
[Ci fib]
+2.1 -13.5 30 +1  1032  -0.2  764  307           
12 20.03.17 190 (Ю) 20000 м    6/0 верхняя 
[Ci fib]
+0.2 -12.8 37 -1  1031.7  -0.4  764  309           
15 20.03.17 200 (Ю) 1000 м    10/0 верхняя 
[Ci fib]
-4.9 -13.1 53 -6  1032.3  0.4  764  315    +2.2       
18 20.03.17 200 (Ю) 1000 м    ясно 
-5.8 -14.3 51 -7  1032.1  -0.3  764  316           
21 20.03.17 160 (Ю) 1000 м    ясно 
-8.3 -17.1 49 -8  1032.5  0.3  764  319           
00 21.03.17 150 (ЮВ) 1000 м    ясно 
-11.1 -17.9 57 -11  1033.2  0.6  765  323           
03 21.03.17 160 (Ю) 20000 м    6/0 верхняя 
[Ci fib]
-11.6 -18.4 57 -11  1033.8  0.5  765  323  -13.1      56  мокрый или
старый снег
50-90% 
06 21.03.17 170 (Ю) 20000 м    ясно 
-3.6 -13.2 47 -3  1033.5  0.2  765  314           
09 21.03.17 190 (Ю) 20000 м    ясно 
+2.5 -12.1 33 +3  1033.1  765  307           
12 21.03.17 190 (Ю) 20000 м    ясно 
+1.5 -9.8 43 +1  1032.9  -0.3  765  307           
15 21.03.17 190 (Ю) 1000 м    ясно 
-4.7 -10.8 62 -4  1033.2  765  315    +2.9       
18 21.03.17 190 (Ю) 1000 м    ясно 
-7.3 -12.8 65 -7  1033.6  0.3  765  318           
21 21.03.17 тихо ()   1000 м    ясно 
-9.1 -14.8 63 -9  1033.8  0.1  765  320           
00 22.03.17 150 (ЮВ) 1000 м    ясно 
-11 -15.6 69 -11  1034.5  0.5  766  323           
03 22.03.17 150 (ЮВ) 20000 м    10/0 верхняя 
[Ci fib]
-9.9 -14.8 67 -10  1034.9  0.5  766  322  -11.6      56  мокрый или
старый снег
50-90% 
06 22.03.17 140 (ЮВ) 20000 м    4/0 верхняя 
[Ci fib]
-2.7 -10.7 54 -2  1034.5  0.1  766  313           
09 22.03.17 160 (Ю) 20000 м    10/0 средняя, верхняя 
[Ac trans|Ci fib]
+4.6 -10.3 33 +5  1033.1  -0.9  765  304           
12 22.03.17 190 (Ю) 20000 м    6/0 средняя, верхняя 
[Ac trans|Ci fib]
+3.2 -9.8 38 +3  1032.6  -0.6  765  305           
15 22.03.17 190 (Ю) 1000 м    10/0 средняя, верхняя 
[Ac trans|Ci fib]
-2.5 -10.8 53 -2  1032.4  -0.4  764  312    +4.9       
18 22.03.17 190 (Ю) 1000 м    ясно 
-5 -11.5 60 -5  1032.1  -0.4  764  315           
21 22.03.17 170 (Ю) 1000 м    ясно 
-7 -12.4 65 -7  1032  -0.2  764  317           
00 23.03.17 150 (ЮВ) 1000 м    ясно 
-9.1 -13.6 70 -9  1032.1  764  320           
03 23.03.17 160 (Ю) 20000 м    ясно 
-7.9 -13.8 63 -8  1031.1  -1  763  318  -10.3      56  мокрый или
старый снег
50-90% 
06 23.03.17 160 (Ю) 20000 м    ясно 
-0.4 -9.3 51 1029.7  -1  762  309           
Время (UTC), дата Ветер
(°,м/с) 
Видим.   Явления Облачность Т
(°С)
Тd
(°С)
f(%) Тe
(°С)
Pmin
(гПа)
dP
(гПа)
Po
(мм)
O2
(г/м3)
Тmin Tmax R s Состояние
почвы

Для получения пояснительной информации подведите курсор к названию столбца.

ПОГОДА в Туринске - архив

Всё, что Вы хотите узнать о погоде в Туринске - удобно и подробно!

Выберите нужную дату (начиная с 1 января 2015* года) и нажмите кнопку "Найти".
Будут отображены архивные сводки погоды по пункту Туринск, начиная с указанной даты.


Отображать данные в формате CSV (для использования в таблицах Excel)


Внимание! Наш архив погоды предназначен исключительно для личного некоммерческого использования в познавательных целях. Если Вам необходимы официальные справки о состоянии погоды (для производственных, юридических, коммерческих и т.п. целей), обращайтесь в органы Росгидромета.

*Примечание: данная дата относится к архиву по метеостанциям СССР (Россия, СНГ, Балтия).
Архив по метеостанциям Зарубежной Европы и Азии (кроме Китая) хранится 10 дней, по другим регионам земного шара (Китай, Африка, Америка, Австралия, Океания) - 1 день.

Туринск - район местоположения метеостанции


Название, широта, долгота, высота метеостанции:
Туринск 58.1°ш. 63.7°д. 103 м над ур. моря [Российская Федерация]

Дополнительная информация

В oтличие oт бoльшинства пoгoдных сайтoв мы публикуем пoдрoбную метеoинфoрмацию в детальнoм прoфессиoнальнoм фoрмате.

Характеристики температуры и влажнoсти вoздуха измеряются на высoте 2 м в тени вдали oт зданий и деревьев.
Скoрoсть ветра измеряется на высoте 10 м (на урoвне рoста челoвека скoрoсть ветра ниже в 1.5-2 раза). Если метеoстанция нахoдится в гoрoде или в лесу, тo скoрoсть ветра занижена на 2-4 м/с пo сравнению с oткрытым местoм. Скoрoсть ветра над акватoриями крупных рек и oзёр, а также на вершинах хoлмoв на 2-5 м/с выше, чем в oбычных услoвиях.
Атмoсфернoе давление в разных тoчках местнoсти мoжет значительнo oтличаться oт давления на метеoстанции, в зависимoсти oт услoвий рельефа (при пoдъёме на 10 м давление пoнижается примернo на 1 мм рт.ст.).